,

(GMT )
Siofok

Weather History for LHSK - December, 2013

Change the Weather History Date:

Thursday, December 19, 2013

  Actual Average Record
Temperature  
Mean Temperature 30 °F -  
Max Temperature 33 °F - - ()
Min Temperature 27 °F - - ()
Degree Days  
Heating Degree Days 35    
Moisture  
Dew Point 27 °F    
Average Humidity 89    
Maximum Humidity 98    
Minimum Humidity 82    
Precipitation  
Precipitation 0.00 in - - ()
Sea Level Pressure  
Sea Level Pressure 30.24 in    
Wind  
Wind Speed 4 mph ()    
Max Wind Speed 7 mph    
Max Gust Speed -    
Visibility 2.7 miles    
Events Fog , Rain    
T = Trace of Precipitation, MM = Missing Value Source: Averaged Metar Reports

Daily Weather History Graph

Daily Weather History Graph

Search for Another Location

Airport or City:

Trip Planner

Search our weather history database for the weather conditions in past years. The results will help you decide how hot, cold, wet, or windy it might be!

Date:

Astronomy

Dec. 19, 2013 Rise Set
Actual Time 7:28 AM CET 4:00 PM CET
Civil Twilight 6:53 AM CET 4:36 PM CET
Nautical Twilight 6:14 AM CET 5:14 PM CET
Astronomical Twilight 5:37 AM CET 5:51 PM CET
Moon 6:17 PM CET (12/19) 8:29 AM CET (12/19)
Length of Visible Light 9h 42m
Length of Day
8h 31m
Waning Gibbous, 96% of the Moon is Illuminated
Dec 19
Waning Gibbous
Dec 25
Last Quarter
Jan 1
New
Jan 8
First Quarter
Jan 16
Full

Hourly Weather History & Observations

Time (CET) Temp. Dew Point Humidity Pressure Visibility Wind Dir Wind Speed Gust Speed Precip Events Conditions
12:00 AM 29 °F 26 °F 85% 30.37 in 4 mi SE 4.5 mph - - Rain Light Freezing Drizzle
1:00 AM 29 °F 26 °F 85% 30.35 in 4 mi SSE 2.2 mph - - Rain Light Freezing Drizzle
2:00 AM 28 °F 26 °F 91% 30.34 in 4 mi SSW 6.7 mph - - Rain Light Freezing Drizzle
3:00 AM 28 °F 26 °F 90% 30.32 in 4 mi South 4.5 mph - - Rain Light Freezing Drizzle
4:00 AM 28 °F 26 °F 91% 30.30 in 3 mi South 4.5 mph - - Rain Light Freezing Drizzle
5:00 AM 28 °F 26 °F 90% 30.28 in 3 mi SSE 4.5 mph - -   Mist
6:00 AM 28 °F 26 °F 86% 30.27 in 3 mi SSE 4.5 mph - -   Mist
7:00 AM 28 °F 26 °F 87% 30.25 in 3 mi South 4.5 mph - -   Mist
8:00 AM 28 °F 26 °F 86% 30.25 in 2 mi South 6.7 mph - -   Mist
9:00 AM 28 °F 25 °F 85% 30.25 in 3 mi South 4.5 mph - -   Mist
10:00 AM 28 °F 26 °F 86% 30.24 in 3 mi South 6.7 mph - -   Mist
11:00 AM 29 °F 26 °F 86% 30.22 in 3 mi South 4.5 mph - -   Mist
12:00 PM 30 °F 27 °F 85% 30.20 in 4 mi SE 2.2 mph - -   Partly Cloudy
1:00 PM 32 °F 29 °F 83% 30.18 in 4 mi ESE 2.2 mph - -   Partly Cloudy
2:00 PM 33 °F 29 °F 82% 30.16 in 3 mi SE 4.5 mph - -   Mist
3:00 PM 33 °F 30 °F 82% 30.16 in 3 mi SE 4.5 mph - -   Mist
4:00 PM 33 °F 30 °F 84% 30.17 in 3 mi ESE 4.5 mph - -   Mist
5:00 PM 31 °F 29 °F 91% 30.17 in 2 mi East 4.5 mph - -   Mist
6:00 PM 31 °F 29 °F 91% 30.19 in 2 mi East 4.5 mph - -   Mist
7:00 PM 30 °F 29 °F 94% 30.19 in 2 mi East 4.5 mph - -   Mist
8:00 PM 29 °F 28 °F 97% 30.21 in 1 mi East 4.5 mph - -   Mist
9:00 PM 29 °F 28 °F 94% 30.22 in 1 mi East 4.5 mph - - Fog Partial Fog
10:00 PM 28 °F 28 °F 98% 30.23 in 0 mi ESE 4.5 mph - - Fog Partial Fog
11:00 PM 28 °F 28 °F 97% 30.24 in 0 mi SE 4.5 mph - - Fog Partial Fog